Cloud_Cover
0 0 0 5 10 4 20 83 5 5 5 100 100 100 100 100 100 100 100 100 83 100 88 30 34 48 46 72 22 6 9 2 2 0 4 0 4 0 0 5 1 2 5 0
0 0 0 0 0 0 3 11 2 2 0 99 100 99 100 100 100 100 100 98 100 100 100 79 1 29 19 40 52 5 5 0 0 12 30 47 96 3 6 7 7 5 2 0
0 1 0 0 0 0 0 4 8 6 0 97 94 99 100 100 100 100 99 99 100 99 75 23 9 0 3 38 26 1 1 0 0 18 4 9 14 0 0 0 0 0 4 5
0 0 0 0 0 0 40 2 1 0 25 86 94 99 100 100 100 100 100 34 100 100 50 63 33 2 0 20 16 0 0 0 0 0 2 1 1 0 5 5 11 0 0 0
0 0 0 0 0 0 79 0 0 0 47 3 82 100 100 100 100 94 100 54 98 85 80 87 43 25 2 4 0 1 3 0 4 0 0 0 0 21 3 39 0 1 0 0
0 0 0 0 0 0 0 0 5 4 7 27 52 100 100 100 100 96 100 80 42 79 58 100 72 88 18 1 0 4 2 5 3 75 0 0 6 21 6 5 0 0 0 0
0 0 0 0 0 0 0 0 74 100 85 81 10 93 100 100 100 56 100 98 83 5 37 70 79 92 6 0 0 0 0 1 57 23 99 48 79 5 8 44 5 12 3 3
0 0 0 0 1 0 0 10 100 100 100 100 2 100 100 75 97 100 40 99 100 94 2 68 15 8 5 0 0 0 0 0 0 5 6 9 32 7 5 5 15 5 34 4
5 6 0 0 0 0 12 0 62 100 91 17 63 100 100 75 94 79 99 42 89 98 57 4 0 5 5 4 2 0 2 2 5 5 11 22 16 5 60 32 5 5 20 25
2 11 2 0 0 0 10 78 44 33 100 40 84 100 100 89 100 84 96 95 72 97 97 0 0 0 0 6 5 4 1 0 0 5 54 56 100 100 80 20 4 8 22 12
0 0 69 0 1 92 5 6 11 61 43 100 99 99 100 99 100 88 100 100 92 46 68 6 0 0 0 2 33 5 2 1 4 0 5 5 6 21 17 73 34 24 5 4
0 2 56 100 16 0 5 100 100 41 98 38 9 90 100 100 83 100 100 87 82 97 100 100 0 1 0 0 0 0 5 0 0 0 2 0 0 14 4 4 6 25 4 5
1 4 4 37 51 2 0 57 14 100 93 97 88 100 100 100 100 100 100 100 100 100 100 100 43 8 1 5 3 0 0 5 5 0 0 0 0 2 3 2 5 2 5 47
0 0 0 56 100 68 100 12 5 71 96 72 33 100 100 100 100 100 100 100 100 100 100 100 100 100 4 1 2 19 5 0 2 5 5 5 0 0 0 10 39 5 2 5
0 0 3 0 0 5 15 55 80 3 100 71 99 100 100 100 100 100 100 100 100 100 100 100 96 52 100 11 37 56 8 2 0 0 1 4 5 5 5 6 100 99 76 90
0 0 0 0 1 0 0 38 2 1 23 0 88 100 100 100 100 100 100 100 100 100 100 100 100 100 41 90 6 5 93 27 3 0 3 0 0 0 0 0 99 100 99 100
2 0 0 0 5 5 5 9 97 55 40 0 17 100 100 100 100 100 100 100 100 99 100 100 93 100 98 91 93 94 88 72 68 41 86 50 10 8 2 1 0 78 84 69
4 0 1 1 6 3 13 9 20 32 25 5 0 94 100 100 100 96 100 100 100 100 100 100 100 100 100 100 97 93 100 90 98 100 100 92 44 49 33 6 8 33 28 100
5 1 9 5 5 31 5 2 11 15 4 1 3 25 100 100 100 72 100 100 100 100 100 100 100 100 100 100 100 100 100 100 100 96 51 100 100 100 34 52 31 53 62 100
5 5 1 51 47 10 61 13 0 0 0 5 0 10 100 100 100 100 100 100 100 100 100 100 100 100 100 100 100 100 100 100 100 96 100 85 99 73 92 83 81 100 100 100
5 1 5 48 85 92 63 0 0 1 2 0 0 45 83 100 100 100 100 100 99 100 100 100 100 100 100 100 100 100 100 100 100 100 100 100 100 86 73 90 83 73 98 100
0 5 51 30 14 20 5 5 4 30 1 4 21 45 10 100 100 100 100 100 100 100 100 100 100 100 100 100 100 100 100 100 100 100 100 100 93 86 100 100 100 100 100 100
5 3 78 2 50 3 0 5 3 1 0 0 12 21 14 96 100 92 100 100 100 100 100 100 100 100 100 100 100 100 100 100 100 100 100 100 100 100 100 100 100 100 100 100
5 0 0 0 3 0 0 0 2 1 0 5 5 90 100 92 99 100 100 100 100 100 100 100 100 100 100 100 100 100 100 100 98 99 88 100 100 100 100 100 100 100 100 100
6 2 0 0 0 0 5 10 5 5 5 6 5 10 100 100 100 100 100 100 100 100 100 100 100 100 100 100 100 100 100 100 100 100 100 100 100 100 100 100 100 100 100 100
3 0 1 6 6 4 9 76 100 82 36 51 79 9 56 100 100 100 95 100 100 100 100 100 100 100 100 100 100 100 100 100 100 100 100 100 100 100 100 100 99 100 100 100